Location: Poughquag
(41.6090°N, 73.6820°W)
Time: 05:56:54
(UTC-04:00)

HTV-X1 - Visible Passes

Search period start: 17 April 2026 00:00
Search period end: 27 April 2026 00:00
Orbit: 463 x 473 km, 51.6° (Epoch: 16 April)

Date Brightness Start Highest point End Pass type
(mag) Time Alt. Az. Time Alt. Az. Time Alt. Az.
17 Apr ? 05:23:46 10° S 05:26:38 22° SE 05:29:33 10° E visible
18 Apr ? 04:52:08 10° S 04:54:44 18° SE 04:57:19 10° E visible
19 Apr ? 04:21:19 13° SSE 04:22:48 15° SE 04:25:01 10° E visible
20 Apr ? 03:50:45 13° SE 03:50:53 13° SE 03:52:31 10° ESE visible
20 Apr ? 05:24:42 11° SW 05:28:16 86° NW 05:31:57 10° NE visible
21 Apr ? 04:54:02 22° SW 04:56:15 79° SE 04:59:56 10° ENE visible
22 Apr ? 04:23:17 44° SSW 04:24:14 66° SE 04:27:52 10° ENE visible
23 Apr ? 03:52:28 52° ESE 03:52:28 52° ESE 03:55:48 10° ENE visible
23 Apr ? 05:27:01 10° W 05:30:16 29° NNW 05:33:32 10° NE visible
24 Apr ? 03:21:35 29° E 03:21:35 29° E 03:23:42 10° ENE visible
24 Apr ? 04:55:31 14° W 04:58:09 32° NNW 05:01:31 10° NE visible
25 Apr ? 02:50:38 16° ENE 02:50:38 16° ENE 02:51:34 10° ENE visible
25 Apr ? 04:24:34 25° WNW 04:26:04 36° NNW 04:29:29 10° NE visible
26 Apr ? 03:53:34 40° NW 03:53:57 41° NNW 03:57:27 10° NE visible
